Location: Northern Prairie Star Party
(53.2167°N, 112.5333°W)
Time: 13:32:38
(UTC-06:00)

Daily predictions for brighter satellites

Satellite Brightness Start Highest point End
(mag) Time Altitude Azimuth Time Altitude Azimuth Time Altitude Azimuth
Meteor 1-15 Rocket 4.3 22:17:20 10° NNW 22:23:08 86° ENE 22:28:47 10° SSE
Cosmos 2333 4.3 22:20:22 10° NNW 22:26:04 88° NE 22:31:47 10° SSE
CENTAUR R/B 2.7 22:22:55 10° SSW 22:28:58 61° SE 22:36:01 10° NE
ERBS 2.8 22:26:26 10° WNW 22:29:47 59° NNE 22:33:08 10° E
Cosmos 1455 Rocket 4.1 22:27:32 10° NNW 22:31:43 46° W 22:35:54 10° SSW
Cosmos 1814 Rocket 4.3 22:26:36 10° SSW 22:31:54 79° WNW 22:37:18 10° NNE
Okean 2 3.9 22:30:50 10° SSE 22:34:47 43° E 22:38:46 10° NNE
Cosmos 1125 Rocket 3.7 22:31:15 10° NNW 22:36:31 73° WSW 22:41:43 10° SSE
CZ-2C R/B 4.0 22:32:37 10° SE 22:37:44 41° ENE 22:43:04 10° N
SPOT 1/Viking Rocket 3.6 22:36:33 10° SSE 22:41:43 81° ENE 22:46:54 10° NNW
Helios 1A 3.0 22:38:15 10° SSE 22:42:24 89° E 22:46:38 10° NNW
USA 245 3.9 22:39:00 10° S 22:42:58 69° WSW 22:48:00 10° NNW
Cosmos 2084 Rocket 3.7 22:39:02 10° NW 22:43:05 59° NE 22:46:59 10° ESE
H-2A R/B 2.7 22:40:15 10° S 22:45:08 54° W 22:50:11 10° NNW
ATLAS 3B R/B 3.7 22:38:53 10° WSW 22:45:45 54° NNW 22:52:24 10° NE
Landsat 7 3.9 22:41:28 10° SSE 22:46:12 73° ENE 22:50:59 10° NNW
Cosmos 1356 Rocket 3.9 22:44:13 10° S 22:48:19 47° E 22:52:29 10° NNE
Cosmos 2034 Rocket 4.0 22:42:53 10° S 22:49:03 80° E 22:55:15 10° NNE
Cosmos 2084 3.9 22:45:50 10° WSW 22:49:59 63° NW 22:53:58 10° NE
Cosmos 1464 Rocket 4.3 22:44:47 10° SSW 22:51:11 78° WNW 22:57:36 10° N
Cosmos 2333 Rocket 2.3 22:46:24 10° NNW 22:52:09 85° ENE 22:57:46 11° SSE
SL-16 R/B 3.5 22:47:17 10° NNW 22:52:23 32° NE 22:57:27 10° ESE
Cosmos 1174 3.5 22:50:20 10° NW 22:53:19 58° NE 22:56:20 11° SE
COSMOS 2428 3.0 22:49:21 10° NW 22:55:01 66° WSW 23:00:37 10° SSE
Helios 1B rocket 2.9 22:52:44 10° NNE 22:56:44 43° E 23:00:41 10° S
COSMOS 2455 4.4 22:57:07 10° SE 23:00:40 17° ESE 23:04:22 10° ENE
Cosmos 1515 4.4 22:57:12 10° SSW 23:01:00 56° WNW 23:04:48 10° N
Cosmos 1980 3.9 22:55:45 10° NNW 23:01:26 67° NE 23:06:47 11° SE
Spot 1 3.9 22:57:43 11° SSE 23:01:40 79° ENE 23:05:47 10° NNW
Abrixas rocket 2.8 22:59:06 10° WSW 23:02:05 35° S 23:05:04 10° ESE
Iridium 40 3.9 23:00:09 10° S 23:02:29 88° E 23:04:57 10° N
DMSP B5D2-2 4.1 22:58:17 10° NNE 23:03:37 75° ESE 23:08:53 10° S
Meteor 1-23 Rocket 4.4 22:59:04 10° SSW 23:04:38 74° WNW 23:10:14 10° N
Terra 1.9 23:00:26 11° SSE 23:05:00 74° ENE 23:09:47 10° NNW
Lacrosse 5 rocket 3.7 23:02:58 10° W 23:05:15 14° SW 23:07:28 10° SSW
Tiangong 2 3.4 23:06:02 10° SSW 23:06:48 11° SSW 23:07:26 10° S
SJ 16-02 2.9 23:03:44 10° NW 23:07:37 30° WSW 23:11:30 10° SSW
Cosmos 1833 4.4 23:01:58 10° SW 23:07:42 78° WNW 23:13:24 10° NNE
Cosmos 540 Rocket 3.6 23:04:19 10° SSW 23:09:29 82° WNW 23:14:43 10° NNE
SPOT 5 3.2 23:06:02 10° S 23:10:27 57° W 23:15:08 10° NNW
Cosmos 2228 3.5 23:07:39 10° N 23:11:50 48° ENE 23:15:22 14° SE
Cosmos 1892 Rocket 4.5 23:08:50 13° SSE 23:12:09 32° E 23:16:02 10° NNE
Cosmos 2297 Rocket 3.6 23:10:46 12° SE 23:14:07 20° E 23:18:05 10° NE
Cosmos 1634 Rocket 4.2 23:08:04 10° SSE 23:14:13 57° E 23:20:25 10° NNE
ISS -3.9 23:11:36 10° W 23:14:52 67° S 23:18:07 10° E
IGS 5A 3.5 23:12:02 12° SSE 23:15:56 80° WSW 23:20:07 10° NNW
Cosmos 1953 4.0 23:12:56 10° NNE 23:16:08 22° ENE 23:19:11 10° ESE
Cosmos 2227 Rocket 3.5 23:14:14 13° SSE 23:17:51 23° ESE 23:22:13 10° NE
Cosmos 2237 Rocket 2.3 23:12:58 10° NNW 23:18:43 79° ENE 23:23:44 14° SE
SAR-Lupe-4 4.5 23:18:42 14° SE 23:21:26 37° ENE 23:24:46 10° N
Cosmos 1544 3.4 23:18:59 10° NNW 23:22:41 65° W 23:25:57 13° S
SL-23 DEB 4.2 23:19:31 10° W 23:23:14 67° S 23:29:23 10° ESE
Cosmos 1726 Rocket 3.6 23:19:27 10° N 23:23:54 78° E 23:27:35 15° SSE
Okean 1-7 Rocket 3.6 23:25:45 11° S 23:30:07 72° E 23:34:40 10° NNE
Cosmos 1066 Rocket 4.2 23:27:40 10° SSW 23:33:05 88° WNW 23:38:39 10° NNE
Spot 4 4.1 23:35:02 16° SSE 23:38:52 64° ENE 23:43:41 10° N
Cosmos 2058 Rocket 3.1 23:39:22 10° N 23:43:55 87° E 23:47:19 18° SSE
USA 234 3.2 23:37:43 10° ENE 23:44:17 78° SSE 23:50:53 10° WSW
Cosmos 192 4.4 23:39:50 11° S 23:44:28 60° ESE 23:49:20 10° NNE
Cosmos 1766 3.5 23:41:21 10° NNW 23:45:19 65° W 23:48:23 16° S
CZ-4C R/B 3.8 23:40:49 10° NW 23:47:12 37° WSW 23:53:30 13° S
ASTRO F (AKARI) 4.3 23:47:33 10° NNE 23:50:50 76° ESE 23:53:15 18° S
ADEOS Rocket 4.5 23:47:39 10° NE 23:51:19 18° E 23:54:28 11° SE
Cosmos 2219 3.2 23:45:35 10° SSW 23:51:20 77° ESE 23:57:06 10° NNE
Cosmos 1733 3.6 23:48:42 10° N 23:52:30 52° ENE 23:54:54 20° SE
